| time (UTC) | temp F | wind direction | speed MPH | gust MPH | rain 1hr in | rain 24hr in | rain mn in | humidity % | barometer mb |
| 20260901070028 | 69 | 117 | 0.0 | 0.0 | 0.00 | 0.00 | 0.00 | 84 | 1010.2 |
| 20260901064529 | 69 | 117 | 0.0 | 0.0 | 0.00 | 0.00 | 0.00 | 84 | 1010.0 |
| 20260901063025 | 69 | 116 | 0.0 | 4.0 | 0.00 | 0.00 | 0.00 | 84 | 1010.1 |
| 20260901061525 | 69 | 120 | 0.0 | 3.0 | 0.00 | 0.00 | 0.00 | 83 | 1010.1 |
| 20260901060023 | 69 | 105 | 0.0 | 6.0 | 0.00 | 0.00 | 0.00 | 83 | 1010.1 |
| 20260901054522 | 70 | 105 | 2.0 | 5.0 | 0.00 | 0.00 | 0.00 | 81 | 1009.9 |
| 20260901053022 | 70 | 93 | 0.0 | 4.0 | 0.00 | 0.00 | 0.00 | 80 | 1009.9 |
| 20260901051528 | 71 | 86 | 0.0 | 3.0 | 0.00 | 0.00 | 0.00 | 79 | 1009.8 |
| 20260901050017 | 71 | 84 | 1.0 | 2.0 | 0.00 | 0.00 | 0.00 | 79 | 1009.6 |
| 20260901044515 | 71 | 84 | 0.0 | 0.0 | 0.00 | 0.00 | 0.00 | 78 | 1009.6 |
| 20260901043008 | 71 | 99 | 0.0 | 0.0 | 0.00 | 0.00 | 0.00 | 77 | 1009.4 |
| 20260901041509 | 72 | 91 | 0.0 | 4.0 | 0.00 | 0.00 | 0.00 | 75 | 1009.6 |
| 20260901040006 | 73 | 98 | 1.0 | 4.0 | 0.00 | 0.00 | 0.00 | 73 | 1009.6 |
| 20260901034505 | 73 | 78 | 0.0 | 3.0 | 0.00 | 0.00 | 0.00 | 72 | 1009.3 |
| 20260901033008 | 74 | 90 | 2.0 | 5.0 | 0.00 | 0.00 | 0.00 | 71 | 1009.1 |
| 20260901031504 | 74 | 117 | 1.0 | 6.0 | 0.00 | 0.00 | 0.00 | 69 | 1009.0 |
| 20260901030004 | 76 | 109 | 1.0 | 6.0 | 0.00 | 0.00 | 0.00 | 64 | 1008.8 |
| 20260901024504 | 77 | 53 | 0.0 | 4.0 | 0.00 | 0.00 | 0.00 | 63 | 1008.5 |
| 20260901023004 | 78 | 83 | 1.0 | 7.0 | 0.00 | 0.00 | 0.00 | 61 | 1008.3 |
| 20260901021502 | 79 | 103 | 4.0 | 7.0 | 0.00 | 0.00 | 0.00 | 58 | 1008.1 |
| 20260901020003 | 80 | 45 | 5.0 | 7.0 | 0.00 | 0.00 | 0.00 | 55 | 1007.9 |
| 20260901014501 | 81 | 49 | 4.0 | 7.0 | 0.00 | 0.00 | 0.00 | 55 | 1007.9 |
| 20260901013100 | 81 | 51 | 3.0 | 8.0 | 0.00 | 0.00 | 0.00 | 56 | 1007.8 |
| 20260901011559 | 82 | 52 | 5.0 | 8.0 | 0.00 | 0.00 | 0.00 | 55 | 1007.9 |
| 20260901010059 | 83 | 27 | 5.0 | 10.0 | 0.00 | 0.00 | 0.00 | 54 | 1007.9 |
| 20260901004558 | 83 | 19 | 2.0 | 8.0 | 0.00 | 0.00 | 0.00 | 52 | 1007.8 |
| 20260901003056 | 83 | 49 | 4.0 | 9.0 | 0.00 | 0.00 | 0.00 | 50 | 1007.8 |
| 20260901001559 | 83 | 54 | 5.0 | 10.0 | 0.00 | 0.00 | 0.00 | 49 | 1007.9 |
| 20260901000103 | 84 | 75 | 3.0 | 9.0 | 0.00 | 0.00 | 0.00 | 48 | 1008.0 |
| 20260831234615 | 83 | 25 | 6.0 | 9.0 | 0.00 | 0.00 | 0.00 | 45 | 1008.1 |
| 20260831233117 | 84 | 21 | 4.0 | 10.0 | 0.00 | 0.00 | 0.00 | 46 | 1008.0 |
| 20260831231555 | 85 | 43 | 6.0 | 9.0 | 0.00 | 0.00 | 0.00 | 45 | 1008.2 |
| 20260831230054 | 85 | 38 | 4.0 | 14.0 | 0.00 | 0.00 | 0.00 | 45 | 1008.3 |
| 20260831224553 | 84 | 19 | 5.0 | 13.0 | 0.00 | 0.00 | 0.00 | 45 | 1008.4 |
| 20260831223051 | 85 | 61 | 5.0 | 13.0 | 0.00 | 0.00 | 0.00 | 45 | 1008.4 |
| 20260831221552 | 85 | 38 | 4.0 | 11.0 | 0.00 | 0.00 | 0.00 | 46 | 1008.6 |
| 20260831220051 | 85 | 15 | 5.0 | 11.0 | 0.00 | 0.00 | 0.00 | 46 | 1008.6 |
| 20260831214603 | 86 | 43 | 7.0 | 13.0 | 0.00 | 0.00 | 0.00 | 47 | 1008.4 |
| 20260831213050 | 85 | 31 | 4.0 | 12.0 | 0.00 | 0.00 | 0.00 | 48 | 1008.4 |
| 20260831211551 | 85 | 46 | 6.0 | 10.0 | 0.00 | 0.00 | 0.00 | 48 | 1008.6 |
| 20260831210048 | 85 | 45 | 5.0 | 13.0 | 0.00 | 0.00 | 0.00 | 48 | 1008.8 |
| 20260831204549 | 85 | 55 | 6.0 | 15.0 | 0.00 | 0.00 | 0.00 | 49 | 1008.9 |
| 20260831203047 | 85 | 88 | 7.0 | 14.0 | 0.00 | 0.00 | 0.00 | 49 | 1008.9 |
| 20260831201549 | 85 | 12 | 6.0 | 13.0 | 0.00 | 0.00 | 0.00 | 51 | 1008.9 |
| 20260831200047 | 85 | 31 | 6.0 | 12.0 | 0.00 | 0.00 | 0.00 | 49 | 1009.0 |
| 20260831194547 | 85 | 32 | 5.0 | 13.0 | 0.00 | 0.00 | 0.00 | 49 | 1009.1 |
| 20260831193044 | 85 | 65 | 3.0 | 10.0 | 0.00 | 0.00 | 0.00 | 48 | 1009.2 |
| 20260831191543 | 85 | 84 | 5.0 | 11.0 | 0.00 | 0.00 | 0.00 | 50 | 1009.1 |
| 20260831190042 | 85 | 78 | 6.0 | 13.0 | 0.00 | 0.00 | 0.00 | 51 | 1009.2 |
| 20260831184539 | 84 | 50 | 6.0 | 10.0 | 0.00 | 0.00 | 0.00 | 51 | 1009.3 |
| 20260831183038 | 84 | 51 | 2.0 | 7.0 | 0.00 | 0.00 | 0.00 | 51 | 1009.3 |
| 20260831181537 | 83 | 28 | 5.0 | 8.0 | 0.00 | 0.00 | 0.00 | 53 | 1009.3 |
| 20260831180033 | 82 | 355 | 3.0 | 8.0 | 0.00 | 0.00 | 0.00 | 54 | 1009.3 |
| 20260831174530 | 81 | 95 | 3.0 | 7.0 | 0.00 | 0.00 | 0.00 | 58 | 1009.3 |
| 20260831173026 | 80 | 22 | 0.0 | 8.0 | 0.00 | 0.00 | 0.00 | 61 | 1009.3 |
| 20260831171526 | 80 | 317 | 4.0 | 7.0 | 0.00 | 0.00 | 0.00 | 63 | 1009.2 |
| 20260831170025 | 78 | 97 | 0.0 | 3.0 | 0.00 | 0.00 | 0.00 | 66 | 1009.2 |
| 20260831164520 | 77 | 257 | 0.0 | 4.0 | 0.00 | 0.00 | 0.00 | 71 | 1009.3 |
| 20260831163015 | 75 | 54 | 2.0 | 5.0 | 0.00 | 0.00 | 0.00 | 73 | 1009.3 |
| 20260831161517 | 75 | 55 | 0.0 | 3.0 | 0.00 | 0.00 | 0.00 | 74 | 1009.2 |
| 20260831160013 | 75 | 327 | 0.0 | 3.0 | 0.00 | 0.00 | 0.00 | 75 | 1009.4 |
| 20260831154510 | 74 | 251 | 0.0 | 4.0 | 0.00 | 0.00 | 0.00 | 77 | 1009.4 |
| 20260831153005 | 73 | 355 | 0.0 | 3.0 | 0.00 | 0.00 | 0.00 | 78 | 1009.3 |
| 20260831151502 | 72 | 287 | 0.0 | 3.0 | 0.00 | 0.00 | 0.00 | 81 | 1009.2 |
| 20260831144559 | 70 | 309 | 0.0 | 3.0 | 0.00 | 0.00 | 0.00 | 84 | 1009.0 |
| 20260831143113 | 69 | 309 | 1.0 | 4.0 | 0.00 | 0.00 | 0.00 | 84 | 1009.0 |
| 20260831141603 | 69 | 263 | 1.0 | 6.0 | 0.00 | 0.00 | 0.00 | 86 | 1008.9 |
| 20260831140054 | 68 | 267 | 3.0 | 7.0 | 0.00 | 0.00 | 0.00 | 87 | 1008.7 |
| 20260831134552 | 68 | 267 | 2.0 | 4.0 | 0.00 | 0.00 | 0.00 | 87 | 1008.4 |
| 20260831133051 | 68 | 271 | 0.0 | 3.0 | 0.00 | 0.00 | 0.00 | 87 | 1008.3 |
| 20260831131551 | 68 | 277 | 0.0 | 4.0 | 0.00 | 0.00 | 0.00 | 87 | 1008.1 |
| 20260831130052 | 68 | 284 | 0.0 | 4.0 | 0.00 | 0.00 | 0.00 | 86 | 1008.1 |
| 20260831124548 | 69 | 270 | 0.0 | 5.0 | 0.00 | 0.00 | 0.00 | 85 | 1008.1 |
| 20260831123047 | 69 | 267 | 4.0 | 6.0 | 0.00 | 0.00 | 0.00 | 85 | 1008.1 |
| 20260831121550 | 69 | 257 | 0.0 | 5.0 | 0.00 | 0.00 | 0.00 | 85 | 1008.0 |
| 20260831120045 | 69 | 245 | 2.0 | 6.0 | 0.00 | 0.00 | 0.00 | 85 | 1008.0 |
| 20260831114551 | 69 | 269 | 1.0 | 6.0 | 0.00 | 0.00 | 0.00 | 85 | 1008.0 |
| 20260831113044 | 69 | 266 | 4.0 | 7.0 | 0.00 | 0.00 | 0.00 | 84 | 1008.0 |
| 20260831111549 | 70 | 257 | 3.0 | 6.0 | 0.00 | 0.00 | 0.00 | 84 | 1008.0 |
| 20260831110055 | 70 | 269 | 3.0 | 6.0 | 0.00 | 0.00 | 0.00 | 83 | 1008.1 |
| 20260831104543 | 71 | 95 | 0.0 | 2.0 | 0.00 | 0.00 | 0.00 | 84 | 1008.1 |
| 20260831103041 | 71 | 5 | 0.0 | 3.0 | 0.00 | 0.00 | 0.00 | 85 | 1008.2 |
| 20260831101544 | 71 | 29 | 0.0 | 0.0 | 0.00 | 0.00 | 0.00 | 86 | 1008.1 |
| 20260831100038 | 71 | 360 | 0.0 | 0.0 | 0.00 | 0.00 | 0.00 | 86 | 1008.2 |
| 20260831094541 | 70 | 360 | 0.0 | 2.0 | 0.00 | 0.00 | 0.00 | 87 | 1008.2 |
| 20260831093037 | 70 | 325 | 0.0 | 0.0 | 0.00 | 0.00 | 0.00 | 87 | 1008.2 |
| 20260831091545 | 70 | 325 | 0.0 | 0.0 | 0.00 | 0.00 | 0.00 | 87 | 1008.1 |
| 20260831090035 | 70 | 322 | 1.0 | 4.0 | 0.00 | 0.00 | 0.00 | 87 | 1008.2 |
| 20260831084535 | 70 | 320 | 0.0 | 0.0 | 0.00 | 0.00 | 0.00 | 88 | 1008.2 |
| 20260831083033 | 70 | 320 | 0.0 | 0.0 | 0.00 | 0.00 | 0.00 | 88 | 1008.4 |
| 20260831081533 | 70 | 320 | 1.0 | 3.0 | 0.00 | 0.00 | 0.00 | 87 | 1008.3 |
| 20260831080032 | 71 | 320 | 0.0 | 0.0 | 0.00 | 0.00 | 0.00 | 87 | 1008.3 |
| 20260831074530 | 71 | 320 | 0.0 | 0.0 | 0.00 | 0.00 | 0.00 | 87 | 1008.4 |
| 20260831073030 | 71 | 320 | 0.0 | 3.0 | 0.00 | 0.00 | 0.00 | 87 | 1008.4 |
| 20260831071536 | 71 | 320 | 0.0 | 0.0 | 0.00 | 0.00 | 0.00 | 86 | 1008.4 |